TimeEST,TemperatureF,Dew PointF,Humidity,Sea Level PressureIn,VisibilityMPH,Wind Direction,Wind SpeedMPH,Gust SpeedMPH,PrecipitationIn,Events,Conditions,WindDirDegrees,DateUTC
12:45 AM,24.8,21.2,86,29.99,10.0,Calm,Calm,-,N/A,,Clear,0,2013-02-25 05:45:00
1:45 AM,24.8,21.2,86,30.00,10.0,Calm,Calm,-,N/A,,Clear,0,2013-02-25 06:45:00
2:45 AM,23.0,21.2,93,30.01,10.0,West,4.6,-,N/A,,Clear,280,2013-02-25 07:45:00
3:45 AM,23.0,21.2,93,30.03,10.0,WNW,5.8,-,N/A,,Clear,290,2013-02-25 08:45:00
5:45 AM,24.8,21.2,86,30.05,10.0,WNW,9.2,-,N/A,,Clear,300,2013-02-25 10:45:00
6:45 AM,23.0,21.2,93,30.08,20.0,Calm,Calm,-,N/A,,Clear,0,2013-02-25 11:45:00
7:45 AM,26.6,23.0,86,30.10,20.0,Calm,Calm,-,N/A,,Scattered Clouds,0,2013-02-25 12:45:00
8:45 AM,32.0,28.4,87,30.11,20.0,West,6.9,-,N/A,,Mostly Cloudy,270,2013-02-25 13:45:00
9:45 AM,33.8,28.4,81,30.13,20.0,Variable,5.8,-,N/A,,Mostly Cloudy,0,2013-02-25 14:45:00
10:45 AM,37.4,26.6,65,30.12,20.0,Calm,Calm,-,N/A,,Mostly Cloudy,0,2013-02-25 15:45:00
11:45 AM,39.2,28.4,65,30.13,20.0,WNW,9.2,-,N/A,,Scattered Clouds,300,2013-02-25 16:45:00
12:45 PM,41.0,26.6,57,30.14,20.0,NW,9.2,-,N/A,,Scattered Clouds,320,2013-02-25 17:45:00
2:45 PM,41.0,26.6,57,30.13,20.0,Calm,Calm,-,N/A,,Mostly Cloudy,0,2013-02-25 19:45:00
4:45 PM,41.0,26.6,57,30.15,20.0,ENE,5.8,-,N/A,,Mostly Cloudy,70,2013-02-25 21:45:00
5:45 PM,39.2,26.6,61,30.17,10.0,Variable,4.6,-,N/A,,Mostly Cloudy,0,2013-02-25 22:45:00
6:45 PM,39.2,26.6,61,30.20,10.0,Variable,4.6,-,N/A,,Mostly Cloudy,0,2013-02-25 23:45:00
7:45 PM,37.4,26.6,65,30.21,10.0,Calm,Calm,-,N/A,,Mostly Cloudy,0,2013-02-26 00:45:00
8:45 PM,37.4,28.4,70,30.21,10.0,Calm,Calm,-,N/A,,Mostly Cloudy,0,2013-02-26 01:45:00
9:45 PM,35.6,28.4,75,30.23,10.0,Calm,Calm,-,N/A,,Overcast,0,2013-02-26 02:45:00
10:45 PM,35.6,28.4,75,30.24,10.0,Calm,Calm,-,N/A,,Overcast,0,2013-02-26 03:45:00
11:45 PM,35.6,26.6,70,30.22,10.0,Calm,Calm,-,N/A,,Overcast,0,2013-02-26 04:45:00